Regional Weather Roundup
Issued by NWS

Home | Current Version | Previous Version | Text Only | Print | Product List | Glossary Off
Versions: 1 2 3 4 5 6 7 8 9 10 11 12 13 14 15 16 17 18 19 20 21 22 23 24 25 26 27 28 29 30 31 32 33 34 35 36 37 38 39 40 41 42 43 44 45 46 47 48 49 50

000
ASUS45 KPSR 222310
RWRAZ

ARIZONA REGIONAL HOURLY WEATHER ROUNDUP
NATIONAL WEATHER SERVICE PHOENIX AZ
400 PM MST TUE APR 22 2014

NOTE: FAIR INDICATES FEW OR NO CLOUDS BELOW 12,000 FEET WITH NO
SIGNIFICANT WEATHER AND/OR OBSTRUCTIONS TO VISIBILITY.

AZZ001>003-036-230000-
NORTHWEST ARIZONA

CITY           SKY/WX    TMP DP  RH WIND       PRES   REMARKS
BULLHEAD CITY  SUNNY     91  12   5 S16G25    29.62F
KINGMAN        CLOUDY    80  13   8 SW30G43   29.76F
$$

AZZ004>008-015-016-018-230000-
NORTH CENTRAL ARIZONA

CITY           SKY/WX    TMP DP  RH WIND       PRES   REMARKS
GRAND CANYON   CLOUDY    66  24  20 SW25G38   29.89F
WILLIAMS       PTSUNNY   66  23  19 S20G32    30.00F
PRESCOTT       PTSUNNY   73  23  15 S21G39    29.89F
FLAGSTAFF      PTSUNNY   65  28  24 SW29G39   29.95F
PAYSON         SUNNY     75  27  16 SW16G23   29.94F
PAGE           CLOUDY    79  24  13 SW8G22    29.69F
$$

AZZ009>014-017-230000-
NORTHEAST ARIZONA

CITY           SKY/WX    TMP DP  RH WIND       PRES   REMARKS
WINSLOW        MOSUNNY   80  24  12 SW26G37   29.85F
SAINT JOHNS    PTSUNNY   77  23  13 SW22G37   29.88F
WINDOW ROCK    CLOUDY    75  15  10 SW28G38   29.93F
SHOW LOW       MOSUNNY   72  25  17 S24G31    29.97F
$$

AZZ023-230000-
GREATER PHOENIX AREA

CITY           SKY/WX    TMP DP  RH WIND       PRES   REMARKS
PHOENIX        PTSUNNY   95  32  11 NW8G23    29.67F
BUCKEYE          N/A     91  32  12 S10       29.70F
GLENDALE       PTSUNNY   93  34  12 SW23G29   29.70F
LUKE AFB       NOT AVBL
DEER VALLEY    MOSUNNY   90  31  12 SW12G20   29.71F
SCOTTSDALE     MOSUNNY   92  34  13 SW12G21   29.72F
MESA-FALCON    PTSUNNY   93  34  12 SW12G17   29.70F
MESA-GATEWAY   PTSUNNY   93  30  10 SW12G17   29.72F
CHANDLER       PTSUNNY   93  32  11 SW13      29.70F
$$

AZZ027-028-230000-
SOUTHWEST MARICOPA COUNTY AND PINAL COUNTY

CITY           SKY/WX    TMP DP  RH WIND       PRES   REMARKS
CASA GRANDE    MOSUNNY   93  32  11 SW15G26   29.72F
GILA BEND      MOCLDY    95  27   8 SW13G24   29.70F
$$

AZZ503-504-507>509-230000-
SOUTHEAST ARIZONA

CITY           SKY/WX    TMP DP  RH WIND       PRES   REMARKS
TUCSON         MOSUNNY   92  24   8 W17G24    29.81F
DAVIS-MONTHAN  SUNNY     90  21   8 SW13G31   29.80F
RYAN FIELD       N/A     91  27   9 SW20G30   29.80F
NOGALES        MOSUNNY   85  29  13 S16G28    29.89F
DOUGLAS        MOSUNNY   87  17   7 SW17G30   29.88F
SAFFORD        PTSUNNY   90  24   9 SW15      29.75F
$$

AZZ020-021-025-026-031-230000-
SOUTHWEST ARIZONA

CITY           SKY/WX    TMP DP  RH WIND       PRES   REMARKS
YUMA           PTSUNNY   93  27   9 W16       29.70F
$$

CAZ031-033-041-043-047-048-061-230000-
SOUTHERN CALIFORNIA

CITY           SKY/WX    TMP DP  RH WIND       PRES   REMARKS
DOWNTOWN L.A.  SUNNY     66  50  56 W9        29.91F
L.A. AIRPORT   MOSUNNY   64  51  62 W15G22    29.92F
SAN DIEGO      MOSUNNY   67  51  56 W10       29.95F
BURBANK        SUNNY     68  48  48 SE13      29.89F
ONTARIO        MOSUNNY   72  48  42 SW14      29.88F
RIVERSIDE      MOSUNNY   72  46  39 W10G18    29.88F
PALM SPRINGS   SUNNY     85  34  16 NW23G31   29.73F
EL CENTRO NAS  PTSUNNY   88  31  13 SW24      29.72F
IMPERIAL       PTSUNNY   88  31  13 W22G30    29.71F
BLYTHE         CLOUDY    90  17   7 SW23G30   29.69F
NEEDLES        MOSUNNY   93  13   5 SW15G23   29.65F
$$

NVZ020-UTZ003-230000-
SOUTHERN NEVADA-UTAH

CITY           SKY/WX    TMP DP  RH WIND       PRES   REMARKS
LAS VEGAS      MOSUNNY   80  -2   4 SW28G46   29.61F
SALT LAKE CITY CLOUDY    76  27  16 S38G54    29.47F HAZE
$$

NMZ009-TXZ055-230000-
NEW MEXICO-WEST TEXAS

CITY           SKY/WX    TMP DP  RH WIND       PRES   REMARKS
ALBUQUERQUE    PTSUNNY   81  29  15 S18G32    29.91F
EL PASO        MOSUNNY   87  32  14 SE14G25   29.85F
$$


........................KEY........................
SKY/WX - SKY CONDITION/WEATHER
TMP    - TEMPERATURE IN FAHRENHEIT
DP     - DEW POINT IN FAHRENHEIT
RH     - RELATIVE HUMIDITY IN PERCENT
WIND   - DIRECTION AND SPEED IN MILES PER HOUR (MPH)
VRB    - VARIABLE WIND DIRECTION
PRES   - MEAN SEA LEVEL PRESSURE IN INCHES OF MERCURY
         F - FALLING PRESSURE   R - RISING PRESSURE
         S - STEADY PRESSURE
VSB    - VISIBILITY IN MILES
HX     - HEAT INDEX IN FAHRENHEIT
WCI    - WIND CHILL INDEX IN FAHRENHEIT
TC     - TEMPERATURE IN CELSIUS WHICH IS ALSO KNOWN AS
         TEMPERATURE IN CENTIGRADE
AFB    - AIR FORCE BASE
         LUKE AFB IS LUKE AIR FORCE BASE
         DAVIS-MONTHAN IS DAVIS-MONTHAN AIR FORCE BASE
NAS    - NAVAL AIR STATION
         EL CENTRO NAS IS EL CENTRO NAVAL AIR STATION
N/A    - NOT AVAILABLE



USA.gov is the U.S. government's official web portal to all federal, state and local government web resources and services.